This demonstration page uses our WeatherBlox Daily Observations layout. Learn more.

Left ArrowRight Arrow

Hourly Observations for September 18, 2016

Temp ( °F °C ) Dew Point ( °F °C ) Humidity (%) Winds ( mph kmh ) Pressure ( in mb ) Visibility ( mi km ) Precip ( " mm )
12:15 am 00:15 Clear 72 22 70 21 94 94 S 7 11 30.09 1019 10 16 N/A
12:35 am 00:35 Clear 72 22 70 21 94 94 S 6 9 30.09 1019 10 16 N/A
12:55 am 00:55 Clear 72 22 68 20 88 88 S 5 7 30.09 1019 10 16 N/A
1:15 am 01:15 Clear 72 22 70 21 94 94 S 6 9 30.09 1019 10 16 N/A
1:35 am 01:35 Clear 70 21 68 20 94 94 N N/A 30.09 1019 10 16 N/A
1:55 am 01:55 Clear 70 21 70 21 100 100 S 3 6 30.09 1019 10 16 N/A
2:15 am 02:15 Clear 72 22 70 21 94 94 S 3 6 30.09 1019 10 16 N/A
2:35 am 02:35 Clear 72 22 70 21 94 94 SSE 6 9 30.09 1019 10 16 N/A
2:55 am 02:55 Clear 72 22 70 21 94 94 SSE 6 9 30.06 1018 10 16 N/A
3:15 am 03:15 Clear 72 22 70 21 94 94 SSE 7 11 30.06 1018 10 16 N/A
3:35 am 03:35 Clear 72 22 70 21 94 94 S 9 15 30.06 1018 10 16 N/A
3:55 am 03:55 Clear 72 22 70 21 94 94 SSE 7 11 30.06 1018 10 16 N/A
4:15 am 04:15 Clear 70 21 70 21 100 100 SSE 5 7 30.06 1018 10 16 N/A
4:35 am 04:35 Partly Cloudy 70 21 70 21 100 100 S 5 7 30.06 1018 10 16 N/A
4:55 am 04:55 Partly Cloudy 72 22 70 21 94 94 SSE 5 7 30.06 1018 10 16 N/A
5:15 am 05:15 Mostly Cloudy 72 22 70 21 94 94 SSE 6 9 30.06 1018 10 16 N/A
5:35 am 05:35 Partly Cloudy 70 21 70 21 100 100 SSE 6 9 30.06 1018 10 16 N/A
5:55 am 05:55 Clear 70 21 70 21 100 100 SSE 3 6 30.06 1018 10 16 N/A
6:15 am 06:15 Partly Cloudy 70 21 70 21 100 100 N N/A 30.06 1018 10 16 N/A
6:35 am 06:35 Mostly Cloudy 70 21 70 21 100 100 N N/A 30.06 1018 10 16 N/A
6:55 am 06:55 Cloudy 70 21 70 21 100 100 SSE 3 6 30.09 1019 10 16 N/A
7:15 am 07:15 Mostly Cloudy 70 21 70 21 100 100 S 3 6 30.09 1019 10 16 N/A
7:35 am 07:35 Mostly Cloudy 70 21 70 21 100 100 N N/A 30.09 1019 10 16 N/A
7:55 am 07:55 Partly Cloudy 70 21 70 21 100 100 S 3 6 30.09 1019 10 16 N/A
8:15 am 08:15 Sunny 70 21 70 21 100 100 S 3 6 30.09 1019 10 16 N/A
8:35 am 08:35 Sunny 72 22 72 22 100 100 SSE 5 7 30.09 1019 10 16 N/A
8:55 am 08:55 Partly Cloudy 73 23 72 22 94 94 SW 6 9 30.09 1019 10 16 N/A
9:15 am 09:15 Partly Cloudy 75 24 72 22 89 89 SW 5 7 30.09 1019 10 16 N/A
9:35 am 09:35 Mostly Cloudy 75 24 72 22 89 89 SSW 6 9 30.09 1019 10 16 N/A
9:55 am 09:55 Mostly Cloudy 77 25 72 22 83 83 S 5 7 30.09 1019 10 16 N/A
10:15 am 10:15 Partly Cloudy 77 25 72 22 83 83 SSW 6 9 30.09 1019 10 16 N/A
10:35 am 10:35 Sunny 77 25 72 22 83 83 S 8 13 30.09 1019 10 16 N/A
10:55 am 10:55 Partly Cloudy 79 26 72 22 79 79 SSW 7 11 30.09 1019 10 16 N/A
11:15 am 11:15 Partly Cloudy 79 26 72 22 79 79 SW 8 13 30.09 1019 10 16 N/A
11:35 am 11:35 Sunny 79 26 72 22 79 79 SSW 6 9 30.09 1019 10 16 N/A
11:55 am 11:55 Sunny 81 27 72 22 74 74 SSW 8 13 30.09 1019 10 16 N/A
12:15 pm 12:15 Mostly Cloudy 82 28 72 22 70 70 SSW 9 15 30.06 1018 10 16 N/A
12:35 pm 12:35 Mostly Cloudy 82 28 72 22 70 70 SSW 9 15 30.06 1018 10 16 N/A
12:55 pm 12:55 Partly Cloudy 84 29 72 22 66 66 WSW 8 13 30.06 1018 10 16 N/A
1:15 pm 13:15 Partly Cloudy 86 30 72 22 62 62 SW 9 15 30.06 1018 10 16 N/A
1:35 pm 13:35 Partly Cloudy 86 30 72 22 62 62 SW 9 15 30.03 1017 10 16 N/A
1:55 pm 13:55 Mostly Cloudy 86 30 70 21 59 59 SW 9 15 30.03 1017 10 16 N/A
2:15 pm 14:15 Partly Cloudy 88 31 70 21 55 55 S 14 22 30.00 1016 10 16 N/A
2:35 pm 14:35 Mostly Cloudy 88 31 70 21 55 55 SW 9 15 30.00 1016 10 16 N/A
2:55 pm 14:55 Mostly Cloudy 88 31 68 20 52 52 SSW 13 20 29.97 1015 10 16 N/A
3:15 pm 15:15 Partly Cloudy 88 31 68 20 52 52 SW 12 19 29.97 1015 10 16 N/A
3:35 pm 15:35 Partly Cloudy 88 31 68 20 52 52 SW 8 13 29.97 1015 10 16 N/A
3:55 pm 15:55 Partly Cloudy 88 31 70 21 55 55 SW 9 15 29.97 1015 10 16 N/A
4:15 pm 16:15 Partly Cloudy 88 31 70 21 55 55 SSW 13 20 29.97 1015 10 16 N/A
4:35 pm 16:35 Partly Cloudy 88 31 68 20 52 52 SSW 15 24 29.97 1015 10 16 N/A
4:55 pm 16:55 Sunny 86 30 68 20 55 55 SW 9 15 30.00 1016 10 16 N/A
5:15 pm 17:15 Sunny 86 30 70 21 59 59 SSW 10 17 30.00 1016 10 16 N/A
5:35 pm 17:35 Sunny 86 30 70 21 59 59 WSW 7 11 30.00 1016 10 16 N/A
5:55 pm 17:55 Sunny 86 30 70 21 59 59 SW 3 6 30.00 1016 10 16 N/A
6:15 pm 18:15 Sunny 84 29 70 21 62 62 SW 9 15 30.00 1016 10 16 N/A
6:35 pm 18:35 Sunny 82 28 70 21 66 66 S 3 6 30.00 1016 10 16 N/A
6:55 pm 18:55 Sunny 82 28 70 21 66 66 S 6 9 30.00 1016 10 16 N/A
7:15 pm 19:15 Clear 82 28 70 21 66 66 S 6 9 30.00 1016 10 16 N/A
7:35 pm 19:35 Clear 82 28 70 21 66 66 S 5 7 30.00 1016 10 16 N/A
7:55 pm 19:55 Clear 82 28 70 21 66 66 SSE 6 9 30.00 1016 10 16 N/A
8:15 pm 20:15 Clear 82 28 70 21 66 66 SSE 5 7 30.00 1016 10 16 N/A
8:35 pm 20:35 Clear 82 28 70 21 66 66 SSE 6 9 30.00 1016 10 16 N/A
8:55 pm 20:55 Clear 81 27 70 21 70 70 S 5 7 30.00 1016 10 16 N/A
9:15 pm 21:15 Clear 81 27 72 22 74 74 S 5 7 30.00 1016 10 16 N/A
9:35 pm 21:35 Clear 79 26 72 22 79 79 SW 10 17 30.00 1016 10 16 N/A
9:55 pm 21:55 Clear 79 26 72 22 79 79 SSW 12 19 30.00 1016 10 16 N/A
10:15 pm 22:15 Clear 77 25 72 22 83 83 SSW 8 13 30.00 1016 10 16 N/A
10:35 pm 22:35 Clear 79 26 72 22 79 79 S 8 13 30.00 1016 10 16 N/A
10:55 pm 22:55 Clear 77 25 72 22 83 83 S 9 15 30.03 1017 10 16 N/A
11:15 pm 23:15 Partly Cloudy 77 25 72 22 83 83 SSW 10 17 30.03 1017 10 16 N/A
11:35 pm 23:35 Cloudy 77 25 73 23 89 89 SSW 12 19 30.03 1017 10 16 N/A
11:55 pm 23:55 Mostly Cloudy 77 25 73 23 89 89 SW 3 6 30.03 1017 10 16 N/A

Powered by AerisWeather